JAT1306 SCEL-SCFA

Flight info

Callsign JAT1306
Flight time N/A
Altitude 38000
Route DONTI1J DONTI UQ802 LONEK LONEK2B
Aircraft A20N/M-SDE2E3FGHIRWXY/LB1

Departure

Time N/A
Airport Comodoro Arturo Merino Benítez International Airport (SCEL)

Arrival

Time 2026-04-29 04:59
Airport Andrés Sabella Gálvez International Airport (SCFA)
Time Latitude Longitude Altitude Speed Heading
2026-04-29 03:57 -28.59690 -70.94360 21765 ft 440 kts
2026-04-29 03:57 -28.56640 -70.94063 20763 ft 441 kts
2026-04-29 03:57 -28.53595 -70.93766 19767 ft 436 kts
2026-04-29 03:58 -28.50596 -70.93469 18769 ft 428 kts
2026-04-29 03:58 -28.47636 -70.93169 18389 ft 427 kts
2026-04-29 03:58 -28.44680 -70.92866 18187 ft 426 kts
2026-04-29 03:58 -28.41730 -70.92563 17987 ft 425 kts
2026-04-29 03:59 -28.38795 -70.92260 17793 ft 423 kts
2026-04-29 03:59 -28.35867 -70.91956 17596 ft 422 kts
2026-04-29 03:59 -28.32952 -70.91651 17400 ft 421 kts
2026-04-29 03:59 -28.30040 -70.91345 17202 ft 420 kts
2026-04-29 04:00 -28.27145 -70.91036 17103 ft 417 kts
2026-04-29 04:00 -28.24254 -70.90725 17083 ft 419 kts
2026-04-29 04:00 -28.21347 -70.90416 17065 ft 419 kts
2026-04-29 04:00 -28.18447 -70.90108 17047 ft 418 kts
2026-04-29 04:01 -28.15552 -70.89800 17036 ft 418 kts
2026-04-29 04:01 -28.13634 -70.89596 17021 ft 419 kts
2026-04-29 04:01 -28.10731 -70.89283 17002 ft 418 kts
2026-04-29 04:01 -28.06864 -70.88869 17003 ft 417 kts
2026-04-29 04:02 -28.04949 -70.88666 17005 ft 418 kts
2026-04-29 04:02 -28.01074 -70.88256 17003 ft 419 kts
2026-04-29 04:02 -27.99155 -70.88053 17001 ft 418 kts
2026-04-29 04:02 -27.96259 -70.87745 17000 ft 418 kts
2026-04-29 04:03 -27.93366 -70.87436 17000 ft 418 kts
2026-04-29 04:03 -27.90475 -70.87129 17000 ft 417 kts
2026-04-29 04:03 -27.87580 -70.86824 17000 ft 418 kts
2026-04-29 04:03 -27.84684 -70.86518 17002 ft 419 kts
2026-04-29 04:04 -27.81783 -70.86211 17002 ft 418 kts
2026-04-29 04:04 -27.78887 -70.85903 17000 ft 418 kts
2026-04-29 04:04 -27.75995 -70.85594 17000 ft 417 kts
2026-04-29 04:04 -27.73104 -70.85288 17001 ft 418 kts
2026-04-29 04:05 -27.70207 -70.84984 17002 ft 419 kts
2026-04-29 04:05 -27.67309 -70.84678 17000 ft 418 kts
2026-04-29 04:05 -27.64414 -70.84373 17000 ft 418 kts
2026-04-29 04:05 -27.61518 -70.84066 17001 ft 418 kts
2026-04-29 04:06 -27.58632 -70.83761 17000 ft 417 kts
2026-04-29 04:06 -27.55733 -70.83457 17002 ft 418 kts
2026-04-29 04:06 -27.52834 -70.83152 17002 ft 419 kts
2026-04-29 04:06 -27.49935 -70.82847 17001 ft 418 kts
2026-04-29 04:07 -27.47044 -70.82542 17000 ft 418 kts
2026-04-29 04:07 -27.44147 -70.82235 16999 ft 417 kts
2026-04-29 04:07 -27.41260 -70.81932 17000 ft 418 kts
2026-04-29 04:07 -27.38359 -70.81628 17001 ft 419 kts
2026-04-29 04:08 -27.35460 -70.81324 17000 ft 418 kts
2026-04-29 04:08 -27.32564 -70.81020 16999 ft 418 kts
2026-04-29 04:08 -27.29671 -70.80716 17000 ft 418 kts
2026-04-29 04:08 -27.26818 -70.80416 16999 ft 417 kts
2026-04-29 04:09 -27.23924 -70.80113 17001 ft 418 kts
2026-04-29 04:09 -27.21026 -70.79810 17002 ft 418 kts
2026-04-29 04:09 -27.18130 -70.79508 17001 ft 418 kts
2026-04-29 04:09 -27.15231 -70.79204 17000 ft 418 kts
2026-04-29 04:10 -27.12340 -70.78900 16999 ft 417 kts
2026-04-29 04:10 -27.09447 -70.78598 17000 ft 418 kts
2026-04-29 04:10 -27.06550 -70.78296 17001 ft 418 kts
2026-04-29 04:10 -27.03652 -70.77994 17001 ft 418 kts
2026-04-29 04:11 -27.00757 -70.77692 17000 ft 418 kts
2026-04-29 04:11 -26.97860 -70.77389 17000 ft 418 kts
2026-04-29 04:11 -26.94970 -70.77087 17000 ft 417 kts
2026-04-29 04:11 -26.92074 -70.76785 17001 ft 418 kts
2026-04-29 04:12 -26.89138 -70.76480 17003 ft 418 kts
2026-04-29 04:12 -26.86279 -70.76183 17002 ft 418 kts
2026-04-29 04:12 -26.83382 -70.75881 17002 ft 418 kts
2026-04-29 04:12 -26.80486 -70.75579 17002 ft 417 kts
2026-04-29 04:13 -26.77597 -70.75279 17002 ft 417 kts
2026-04-29 04:13 -26.74705 -70.74979 17002 ft 418 kts
2026-04-29 04:13 -26.71801 -70.74677 17001 ft 418 kts
2026-04-29 04:13 -26.68906 -70.74377 17000 ft 418 kts
2026-04-29 04:14 -26.66012 -70.74068 16998 ft 417 kts
2026-04-29 04:14 -26.63134 -70.73662 16999 ft 417 kts
2026-04-29 04:14 -26.60255 -70.73194 17000 ft 418 kts
2026-04-29 04:14 -26.57378 -70.72696 17000 ft 419 kts
2026-04-29 04:15 -26.54502 -70.72183 16998 ft 418 kts
2026-04-29 04:15 -26.51633 -70.71661 16998 ft 418 kts
2026-04-29 04:15 -26.48763 -70.71133 16999 ft 418 kts
2026-04-29 04:15 -26.45891 -70.70600 17000 ft 419 kts
2026-04-29 04:16 -26.43014 -70.70102 16998 ft 417 kts
2026-04-29 04:16 -26.40130 -70.69764 16999 ft 417 kts
2026-04-29 04:16 -26.37227 -70.69505 17000 ft 418 kts
2026-04-29 04:16 -26.34328 -70.69281 16999 ft 417 kts
2026-04-29 04:17 -26.31432 -70.69061 16999 ft 417 kts
2026-04-29 04:17 -26.28532 -70.68841 17001 ft 418 kts
2026-04-29 04:17 -26.25626 -70.68622 17000 ft 418 kts
2026-04-29 04:17 -26.22723 -70.68402 16999 ft 418 kts
2026-04-29 04:18 -26.19824 -70.68181 16999 ft 418 kts
2026-04-29 04:18 -26.16925 -70.67946 16999 ft 417 kts
2026-04-29 04:18 -26.14030 -70.67699 16999 ft 418 kts
2026-04-29 04:18 -26.11133 -70.67444 17000 ft 418 kts
2026-04-29 04:19 -26.08271 -70.67187 17000 ft 418 kts
2026-04-29 04:19 -26.05370 -70.66922 16999 ft 418 kts
2026-04-29 04:19 -26.02473 -70.66654 16998 ft 417 kts
2026-04-29 04:19 -25.99545 -70.66390 16999 ft 417 kts
2026-04-29 04:20 -25.96679 -70.66139 17001 ft 419 kts
2026-04-29 04:20 -25.93778 -70.65886 17000 ft 418 kts
2026-04-29 04:20 -25.90879 -70.65636 17000 ft 418 kts
2026-04-29 04:20 -25.87980 -70.65386 17002 ft 418 kts
2026-04-29 04:21 -25.85078 -70.65135 17001 ft 417 kts
2026-04-29 04:21 -25.82185 -70.64885 17002 ft 417 kts
2026-04-29 04:21 -25.79288 -70.64633 17004 ft 418 kts
2026-04-29 04:21 -25.76382 -70.64379 17004 ft 419 kts
2026-04-29 04:22 -25.73481 -70.64125 17002 ft 418 kts
2026-04-29 04:22 -25.70587 -70.63870 17001 ft 417 kts
2026-04-29 04:22 -25.67691 -70.63616 17001 ft 417 kts
2026-04-29 04:22 -25.64790 -70.63363 17001 ft 418 kts
2026-04-29 04:23 -25.61887 -70.63112 17002 ft 419 kts
2026-04-29 04:23 -25.58985 -70.62860 17001 ft 418 kts
2026-04-29 04:23 -25.56088 -70.62609 17001 ft 418 kts
2026-04-29 04:23 -25.53191 -70.62357 17002 ft 418 kts
2026-04-29 04:24 -25.50299 -70.62106 17002 ft 417 kts
2026-04-29 04:24 -25.47396 -70.61855 17002 ft 418 kts
2026-04-29 04:24 -25.44495 -70.61603 17002 ft 419 kts
2026-04-29 04:24 -25.41596 -70.61350 16999 ft 417 kts
2026-04-29 04:25 -25.38703 -70.61100 16999 ft 417 kts
2026-04-29 04:25 -25.35803 -70.60850 17000 ft 418 kts
2026-04-29 04:25 -25.32897 -70.60599 16999 ft 418 kts
2026-04-29 04:25 -25.29998 -70.60349 16999 ft 418 kts
2026-04-29 04:26 -25.27104 -70.60099 17000 ft 418 kts
2026-04-29 04:26 -25.24206 -70.59849 16998 ft 417 kts
2026-04-29 04:26 -25.21310 -70.59599 16999 ft 418 kts
2026-04-29 04:26 -25.18411 -70.59350 17000 ft 418 kts
2026-04-29 04:27 -25.15510 -70.59100 16999 ft 418 kts
2026-04-29 04:27 -25.12608 -70.58850 16999 ft 418 kts
2026-04-29 04:27 -25.09709 -70.58600 16998 ft 417 kts
2026-04-29 04:27 -25.06819 -70.58352 16999 ft 417 kts
2026-04-29 04:28 -25.03922 -70.58103 17000 ft 418 kts
2026-04-29 04:28 -25.01021 -70.57854 16999 ft 418 kts
2026-04-29 04:28 -24.98111 -70.57604 16999 ft 418 kts
2026-04-29 04:28 -24.95217 -70.57355 16999 ft 418 kts
2026-04-29 04:29 -24.92323 -70.57106 16999 ft 417 kts
2026-04-29 04:29 -24.89427 -70.56858 16999 ft 417 kts
2026-04-29 04:29 -24.86566 -70.56613 17000 ft 418 kts
2026-04-29 04:29 -24.83663 -70.56365 17000 ft 418 kts
2026-04-29 04:30 -24.80760 -70.56164 16999 ft 417 kts
2026-04-29 04:30 -24.77861 -70.56080 17000 ft 417 kts
2026-04-29 04:30 -24.72041 -70.56060 17002 ft 418 kts 359°
2026-04-29 04:31 -24.69140 -70.56086 17002 ft 417 kts 359°
2026-04-29 04:31 -24.66233 -70.56132 17002 ft 418 kts 359°
2026-04-29 04:31 -24.63328 -70.56175 17001 ft 417 kts 359°
2026-04-29 04:31 -24.60427 -70.56202 17002 ft 418 kts 359°
2026-04-29 04:32 -24.57516 -70.56221 17002 ft 418 kts 359°
2026-04-29 04:32 -24.54603 -70.56234 17002 ft 418 kts 359°
2026-04-29 04:32 -24.51696 -70.56243 17002 ft 418 kts 359°
2026-04-29 04:32 -24.48799 -70.56247 17001 ft 417 kts 359°
2026-04-29 04:33 -24.45893 -70.56259 17001 ft 417 kts 359°
2026-04-29 04:33 -24.42984 -70.56276 17002 ft 418 kts 359°
2026-04-29 04:33 -24.40071 -70.56296 17001 ft 418 kts 359°
2026-04-29 04:33 -24.37161 -70.56316 16999 ft 418 kts 359°
2026-04-29 04:34 -24.34248 -70.56338 16301 ft 420 kts 359°
2026-04-29 04:34 -24.31355 -70.56357 15311 ft 410 kts 359°
2026-04-29 04:34 -24.28530 -70.56375 14308 ft 401 kts 359°
2026-04-29 04:34 -24.25769 -70.56392 13315 ft 394 kts 359°
2026-04-29 04:35 -24.23047 -70.56409 12314 ft 388 kts 359°
2026-04-29 04:35 -24.20350 -70.56361 11660 ft 389 kts
2026-04-29 04:35 -24.17668 -70.55995 11358 ft 386 kts
2026-04-29 04:35 -24.15029 -70.55501 11068 ft 384 kts 10°
2026-04-29 04:36 -24.12413 -70.54951 10766 ft 383 kts 11°
2026-04-29 04:36 -24.09811 -70.54370 10472 ft 381 kts 11°
2026-04-29 04:36 -24.07225 -70.53771 10178 ft 379 kts 12°
2026-04-29 04:36 -24.04657 -70.53165 10090 ft 379 kts 11°
2026-04-29 04:37 -24.02059 -70.52612 10075 ft 379 kts 10°
2026-04-29 04:37 -23.99469 -70.52098 10071 ft 378 kts 10°
2026-04-29 04:37 -23.96876 -70.51601 9666 ft 375 kts
2026-04-29 04:37 -23.94362 -70.51130 9002 ft 359 kts
2026-04-29 04:38 -23.91946 -70.50684 8365 ft 345 kts
2026-04-29 04:38 -23.89615 -70.50258 7747 ft 334 kts
2026-04-29 04:38 -23.87360 -70.49849 7148 ft 324 kts
2026-04-29 04:38 -23.85167 -70.49457 6585 ft 315 kts
2026-04-29 04:39 -23.83085 -70.49132 6552 ft 290 kts
2026-04-29 04:39 -23.81140 -70.48876 6548 ft 280 kts
2026-04-29 04:39 -23.79194 -70.48643 6473 ft 282 kts
2026-04-29 04:39 -23.77234 -70.48422 5968 ft 283 kts
2026-04-29 04:40 -23.75292 -70.48210 5461 ft 279 kts
2026-04-29 04:40 -23.73369 -70.48006 4957 ft 275 kts
2026-04-29 04:40 -23.71488 -70.47801 4643 ft 265 kts
2026-04-29 04:40 -23.69628 -70.47572 4568 ft 264 kts
2026-04-29 04:41 -23.67798 -70.47334 4529 ft 268 kts
2026-04-29 04:41 -23.65940 -70.47088 4513 ft 269 kts
2026-04-29 04:41 -23.64078 -70.46839 4509 ft 271 kts
2026-04-29 04:41 -23.62226 -70.46591 4505 ft 271 kts
2026-04-29 04:42 -23.60360 -70.46316 4503 ft 271 kts 13°
2026-04-29 04:42 -23.58704 -70.45418 4863 ft 271 kts 41°
2026-04-29 04:42 -23.57605 -70.43741 5122 ft 275 kts 70°
2026-04-29 04:42 -23.57351 -70.41696 5233 ft 275 kts 98°
2026-04-29 04:43 -23.58009 -70.39768 5283 ft 273 kts 127°
2026-04-29 04:43 -23.59415 -70.38412 5305 ft 272 kts 151°
2026-04-29 04:43 -23.61108 -70.37490 5297 ft 272 kts 155°
2026-04-29 04:43 -23.62658 -70.36335 5301 ft 272 kts 137°
2026-04-29 04:44 -23.63986 -70.34859 5295 ft 273 kts 133°
2026-04-29 04:44 -23.65254 -70.33322 5292 ft 272 kts 132°
2026-04-29 04:44 -23.66497 -70.31768 5292 ft 272 kts 131°
2026-04-29 04:44 -23.67737 -70.30198 5291 ft 273 kts 131°
2026-04-29 04:45 -23.68969 -70.28630 5290 ft 272 kts 131°
2026-04-29 04:45 -23.70198 -70.27060 5292 ft 272 kts 131°
2026-04-29 04:45 -23.71429 -70.25485 5292 ft 273 kts 131°
2026-04-29 04:45 -23.72658 -70.23911 5291 ft 272 kts 131°
2026-04-29 04:46 -23.73888 -70.22339 5293 ft 272 kts 131°
2026-04-29 04:46 -23.75121 -70.20766 5295 ft 273 kts 131°
2026-04-29 04:46 -23.76354 -70.19194 5295 ft 273 kts 131°
2026-04-29 04:46 -23.77585 -70.17625 5293 ft 272 kts 131°
2026-04-29 04:47 -23.78913 -70.16164 5301 ft 272 kts 147°
2026-04-29 04:47 -23.80663 -70.15447 5313 ft 271 kts 175°
2026-04-29 04:47 -23.82511 -70.15722 5312 ft 270 kts 204°
2026-04-29 04:47 -23.84003 -70.16929 5316 ft 270 kts 232°
2026-04-29 04:48 -23.84610 -70.18106 5319 ft 270 kts 251°
2026-04-29 04:48 -23.84817 -70.20829 5303 ft 271 kts 273°
2026-04-29 04:48 -23.84725 -70.22186 5305 ft 271 kts 275°
2026-04-29 04:48 -23.84534 -70.24229 5298 ft 270 kts 276°
2026-04-29 04:49 -23.84317 -70.26269 5294 ft 271 kts 276°
2026-04-29 04:49 -23.84092 -70.28312 5293 ft 270 kts 276°
2026-04-29 04:49 -23.83866 -70.30346 5293 ft 270 kts 276°
2026-04-29 04:49 -23.83638 -70.32388 5292 ft 271 kts 276°
2026-04-29 04:50 -23.83401 -70.34435 5261 ft 275 kts 278°
2026-04-29 04:50 -23.83048 -70.36483 5152 ft 272 kts 282°
2026-04-29 04:50 -23.82632 -70.38487 5048 ft 271 kts 283°
2026-04-29 04:50 -23.82190 -70.40485 4942 ft 270 kts 283°
2026-04-29 04:51 -23.81738 -70.42467 4841 ft 269 kts 283°
2026-04-29 04:51 -23.81280 -70.44446 4734 ft 269 kts 284°
2026-04-29 04:51 -23.80820 -70.46403 4679 ft 255 kts 286°
2026-04-29 04:51 -23.79994 -70.47934 4676 ft 218 kts 316°
2026-04-29 04:52 -23.78778 -70.48562 4670 ft 178 kts 352°
2026-04-29 04:52 -23.77578 -70.48593 4677 ft 173 kts
2026-04-29 04:52 -23.76375 -70.48468 4681 ft 173 kts
2026-04-29 04:52 -23.75187 -70.48293 4680 ft 173 kts
2026-04-29 04:53 -23.73995 -70.48108 4675 ft 173 kts
2026-04-29 04:53 -23.72805 -70.47935 4675 ft 172 kts
2026-04-29 04:53 -23.71614 -70.47777 4677 ft 173 kts
2026-04-29 04:53 -23.70420 -70.47631 4683 ft 173 kts
2026-04-29 04:54 -23.69226 -70.47489 4683 ft 172 kts
2026-04-29 04:54 -23.68033 -70.47350 4659 ft 174 kts
2026-04-29 04:54 -23.66816 -70.47207 4432 ft 174 kts
2026-04-29 04:54 -23.65634 -70.47066 4209 ft 169 kts
2026-04-29 04:55 -23.64455 -70.46924 3988 ft 172 kts
2026-04-29 04:55 -23.63267 -70.46781 3774 ft 171 kts
2026-04-29 04:55 -23.62098 -70.46639 3551 ft 168 kts
2026-04-29 04:55 -23.60931 -70.46498 3351 ft 169 kts
2026-04-29 04:56 -23.59756 -70.46355 3121 ft 170 kts
2026-04-29 04:56 -23.58593 -70.46214 2906 ft 167 kts
2026-04-29 04:56 -23.57440 -70.46074 2694 ft 167 kts
2026-04-29 04:56 -23.56283 -70.45934 2481 ft 168 kts
2026-04-29 04:57 -23.55124 -70.45794 2266 ft 167 kts
2026-04-29 04:57 -23.53977 -70.45655 2053 ft 165 kts
2026-04-29 04:57 -23.52837 -70.45516 1841 ft 165 kts
2026-04-29 04:57 -23.51692 -70.45378 1627 ft 166 kts
2026-04-29 04:58 -23.50550 -70.45239 1414 ft 165 kts
2026-04-29 04:58 -23.49417 -70.45103 1195 ft 163 kts
2026-04-29 04:58 -23.48296 -70.44968 985 ft 163 kts
2026-04-29 04:58 -23.47165 -70.44831 771 ft 164 kts
2026-04-29 04:59 -23.46033 -70.44699 533 ft 163 kts
2026-04-29 04:59 -23.44966 -70.44571 385 ft 134 kts
2026-04-29 04:59 -23.44448 -70.44507 409 ft 28 kts
2026-04-29 04:59 -23.44297 -70.44490 408 ft 16 kts
2026-04-29 05:00 -23.44223 -70.44478 412 ft 9 kts
2026-04-29 05:00 -23.44158 -70.44464 424 ft 10 kts 29°
2026-04-29 05:00 -23.44138 -70.44384 425 ft 7 kts 95°
2026-04-29 05:00 -23.44140 -70.44365 425 ft 2 kts 97°
2026-04-29 05:01 -23.44142 -70.44344 425 ft 4 kts 97°
2026-04-29 05:01 -23.44143 -70.44342 425 ft 0 kts 97°
2026-04-29 05:01 -23.44145 -70.44330 420 ft 6 kts 103°
2026-04-29 05:01 -23.44190 -70.44286 423 ft 11 kts 172°
2026-04-29 05:02 -23.44313 -70.44297 412 ft 20 kts 186°
2026-04-29 05:02 -23.44443 -70.44313 411 ft 17 kts 186°
2026-04-29 05:02 -23.44546 -70.44326 407 ft 13 kts 186°
2026-04-29 05:02 -23.44636 -70.44317 403 ft 14 kts 166°
2026-04-29 05:03 -23.44737 -70.44288 398 ft 15 kts 164°
2026-04-29 05:03 -23.44826 -70.44260 394 ft 12 kts 165°
2026-04-29 05:03 -23.44901 -70.44259 391 ft 12 kts 186°
2026-04-29 05:03 -23.44962 -70.44234 388 ft 10 kts 110°
2026-04-29 05:04 -23.44982 -70.44199 387 ft 3 kts 137°
2026-04-29 05:04 -23.44990 -70.44192 387 ft 1 kts 140°
2026-04-29 05:04 -23.44991 -70.44191 387 ft 0 kts 140°
2026-04-29 05:05 -23.44992 -70.44190 387 ft 0 kts 140°
2026-04-29 05:05 -23.44993 -70.44189 387 ft 0 kts 140°
2026-04-29 05:05 -23.44994 -70.44188 387 ft 0 kts 140°